Kingsville NAS, TX

11:57 PM CST on December 11, 2017 (GMT -0600)
Kingsville Naval Air Station

Weather History for KNQI - November, 2012

Change the Weather History Date:

Friday, November 9, 2012

  Actual Average Record
Temperature  
Mean Temperature 74 °F -  
Max Temperature 87 °F 74 °F 89 °F (2006)
Min Temperature 60 °F 56 °F 37 °F (2000)
Cooling Degree Days 8    
Growing Degree Days 24 (Base 50)    
Moisture  
Dew Point 62 °F    
Average Humidity 70    
Maximum Humidity 97    
Minimum Humidity 37    
Precipitation  
Precipitation 0.00 in - - ()
Sea Level Pressure  
Sea Level Pressure 30.01 in    
Wind  
Wind Speed 11 mph (SE)    
Max Wind Speed 23 mph    
Max Gust Speed 33 mph    
Visibility 10 miles    
Events      
Averages and records for this station are not official NWS values.
T = Trace of Precipitation, MM = Missing Value Source: NWS Daily Summary

Daily Weather History Graph

Daily Weather History Graph

Search for Another Location

Airport or City:

Trip Planner

Search our weather history database for the weather conditions in past years. The results will help you decide how hot, cold, wet, or windy it might be!

Date:

Astronomy

Nov. 09, 2012 Rise Set
Actual Time 6:47 AM CST 5:42 PM CST
Civil Twilight 6:23 AM CST 6:06 PM CST
Nautical Twilight 5:55 AM CST 6:34 PM CST
Astronomical Twilight 5:27 AM CST 7:02 PM CST
Moon 2:12 AM CST (11/9) 2:35 PM CST (11/9)
Length of Visible Light 11h 43m
Length of Day
10h 54m
Waning Crescent, 23% of the Moon is Illuminated
Nov 9
Waning Crescent
Nov 13
New
Nov 20
First Quarter
Nov 28
Full
Dec 6
Last Quarter

Hourly Weather History & Observations

Time (CST) Temp. Heat Index Dew Point Humidity Pressure Visibility Wind Dir Wind Speed Gust Speed Precip Events Conditions
12:56 AM 68.0 °F - 63.0 °F 84% 30.04 in 10.0 mi SSE 6.9 mph - N/A   Clear
1:56 AM 66.9 °F - 63.0 °F 87% 30.04 in 10.0 mi SSE 8.1 mph - N/A   Clear
2:56 AM 66.0 °F - 63.0 °F 90% 30.03 in 10.0 mi South 8.1 mph - N/A   Clear
3:56 AM 64.9 °F - 62.1 °F 90% 30.02 in 10.0 mi SSE 5.8 mph - N/A   Clear
4:56 AM 63.0 °F - 61.0 °F 93% 30.01 in 10.0 mi SSE 6.9 mph - N/A   Clear
5:56 AM 63.0 °F - 62.1 °F 97% 30.02 in 10.0 mi SSE 3.5 mph - N/A   Clear
6:56 AM 60.1 °F - 59.0 °F 96% 30.03 in 10.0 mi SE 3.5 mph - N/A   Partly Cloudy
7:56 AM 66.0 °F - 64.0 °F 93% 30.04 in 10.0 mi SE 4.6 mph - N/A   Partly Cloudy
8:56 AM 78.1 °F - 66.0 °F 66% 30.05 in 10.0 mi SSE 17.3 mph 24.2 mph N/A   Partly Cloudy
9:56 AM 82.0 °F 83.4 °F 64.0 °F 54% 30.07 in 10.0 mi SSE 21.9 mph 31.1 mph N/A   Scattered Clouds
10:56 AM 84.9 °F 85.4 °F 62.1 °F 46% 30.06 in 10.0 mi SSE 21.9 mph 33.4 mph N/A   Scattered Clouds
11:56 AM 86.0 °F 86.1 °F 61.0 °F 43% 30.03 in 10.0 mi SE 20.7 mph 33.4 mph N/A   Scattered Clouds
12:56 PM 87.1 °F 86.1 °F 57.9 °F 37% 29.99 in 10.0 mi SE 23.0 mph 33.4 mph N/A   Scattered Clouds
1:56 PM 87.1 °F 86.7 °F 60.1 °F 40% 29.97 in 10.0 mi SE 19.6 mph 32.2 mph N/A   Scattered Clouds
2:50 PM 86.0 °F 86.6 °F 62.6 °F 45% 29.96 in 10.0 mi SE 19.6 mph 32.2 mph N/A   Partly Cloudy
2:56 PM 86.0 °F 86.8 °F 63.0 °F 46% 29.96 in 10.0 mi SE 23.0 mph 31.1 mph N/A   Partly Cloudy
3:56 PM 82.9 °F 83.7 °F 62.1 °F 49% 29.95 in 10.0 mi SE 21.9 mph 31.1 mph N/A   Partly Cloudy
4:56 PM 80.1 °F 81.2 °F 62.1 °F 54% 29.96 in 10.0 mi SE 21.9 mph 31.1 mph N/A   Partly Cloudy
5:56 PM 77.0 °F - 63.0 °F 62% 29.97 in 10.0 mi SE 20.7 mph 31.1 mph N/A   Partly Cloudy
6:56 PM 75.0 °F - 63.0 °F 66% 29.99 in 10.0 mi SE 12.7 mph 19.6 mph N/A   Clear
7:56 PM 73.9 °F - 63.0 °F 68% 30.01 in 10.0 mi SE 9.2 mph - N/A   Clear
8:56 PM 72.0 °F - 63.0 °F 73% 30.01 in 10.0 mi SE 8.1 mph - N/A   Clear
9:56 PM 68.0 °F - 62.1 °F 81% 30.02 in 10.0 mi ESE 5.8 mph - N/A   Clear
10:56 PM 66.9 °F - 64.0 °F 90% 30.03 in 10.0 mi SSE 4.6 mph - N/A   Scattered Clouds
11:56 PM 64.9 °F - 63.0 °F 93% 30.01 in 10.0 mi SSE 8.1 mph - N/A   Clear